| time (UTC) | temp F | wind direction | speed MPH | gust MPH | rain 1hr in | rain 24hr in | rain mn in | humidity % | barometer mb |
| 20260506102526 | 57 | 314 | 0.0 | 0.0 | 0.00 | 0.00 | 0.00 | 98 | 1016.1 |
| 20260506102023 | 56 | 321 | 0.0 | 0.0 | 0.00 | 0.00 | 0.00 | 98 | 1016.4 |
| 20260506101520 | 57 | 321 | 0.0 | 0.0 | 0.00 | 0.00 | 0.00 | 98 | 1016.4 |
| 20260506101017 | 57 | 321 | 0.0 | 0.0 | 0.00 | 0.00 | 0.00 | 98 | 1016.0 |
| 20260506100515 | 57 | 321 | 0.0 | 0.0 | 0.00 | 0.00 | 0.00 | 97 | 1016.1 |
| 20260506100013 | 57 | 321 | 0.0 | 0.0 | 0.00 | 0.00 | 0.00 | 97 | 1015.9 |
| 20260506095512 | 57 | 321 | 0.0 | 0.0 | 0.00 | 0.00 | 0.00 | 97 | 1016.1 |
| 20260506095007 | 57 | 321 | 0.0 | 0.0 | 0.00 | 0.00 | 0.00 | 97 | 1016.3 |
| 20260506094505 | 57 | 322 | 0.0 | 0.0 | 0.00 | 0.00 | 0.00 | 97 | 1015.9 |
| 20260506094003 | 57 | 321 | 0.0 | 0.0 | 0.00 | 0.00 | 0.00 | 97 | 1016.0 |
| 20260506093501 | 57 | 321 | 0.0 | 0.0 | 0.00 | 0.00 | 0.00 | 97 | 1016.0 |
| 20260506092958 | 57 | 320 | 0.0 | 0.0 | 0.00 | 0.00 | 0.00 | 97 | 1016.0 |
| 20260506092456 | 57 | 320 | 0.0 | 0.0 | 0.00 | 0.00 | 0.00 | 97 | 1016.1 |
| 20260506091952 | 57 | 320 | 0.0 | 0.0 | 0.00 | 0.00 | 0.00 | 97 | 1016.0 |
| 20260506091451 | 57 | 320 | 0.0 | 0.0 | 0.00 | 0.00 | 0.00 | 97 | 1016.1 |
| 20260506090948 | 57 | 320 | 0.0 | 0.0 | 0.00 | 0.00 | 0.00 | 97 | 1016.0 |
| 20260506090445 | 57 | 320 | 0.0 | 0.0 | 0.00 | 0.00 | 0.00 | 97 | 1016.3 |
| 20260506085941 | 57 | 320 | 0.0 | 0.0 | 0.00 | 0.00 | 0.00 | 97 | 1016.3 |
| 20260506085439 | 57 | 320 | 0.0 | 0.0 | 0.00 | 0.00 | 0.00 | 97 | 1016.1 |
| 20260506084935 | 57 | 320 | 0.0 | 0.0 | 0.00 | 0.00 | 0.00 | 97 | 1016.0 |
| 20260506084432 | 57 | 320 | 0.0 | 0.0 | 0.00 | 0.00 | 0.00 | 97 | 1016.0 |
| 20260506083928 | 57 | 320 | 0.0 | 0.0 | 0.00 | 0.00 | 0.00 | 97 | 1016.1 |
| 20260506083425 | 57 | 320 | 0.0 | 0.0 | 0.00 | 0.00 | 0.00 | 97 | 1016.5 |
| 20260506082922 | 57 | 320 | 0.0 | 0.0 | 0.00 | 0.00 | 0.00 | 97 | 1016.7 |
| 20260506082420 | 57 | 320 | 0.0 | 0.0 | 0.00 | 0.00 | 0.00 | 97 | 1016.7 |
| 20260506081915 | 57 | 320 | 0.0 | 0.0 | 0.00 | 0.00 | 0.00 | 97 | 1016.6 |
| 20260506081414 | 57 | 320 | 0.0 | 0.0 | 0.00 | 0.00 | 0.00 | 97 | 1016.5 |
| 20260506080912 | 57 | 320 | 0.0 | 0.0 | 0.00 | 0.00 | 0.00 | 96 | 1016.5 |
| 20260506080407 | 57 | 320 | 0.0 | 0.0 | 0.00 | 0.00 | 0.00 | 97 | 1016.3 |
| 20260506073351 | 57 | 320 | 0.0 | 0.0 | 0.00 | 0.00 | 0.00 | 96 | 1016.2 |
| 20260506072848 | 57 | 320 | 0.0 | 0.0 | 0.00 | 0.00 | 0.00 | 96 | 1016.1 |
| 20260506072346 | 57 | 320 | 0.0 | 0.0 | 0.00 | 0.00 | 0.00 | 96 | 1016.0 |
| 20260506071843 | 57 | 317 | 0.0 | 0.0 | 0.00 | 0.00 | 0.00 | 96 | 1015.9 |
| 20260506071341 | 57 | 317 | 0.0 | 0.0 | 0.00 | 0.00 | 0.00 | 96 | 1015.8 |
| 20260506070838 | 57 | 316 | 0.0 | 0.0 | 0.00 | 0.00 | 0.00 | 96 | 1016.0 |
| 20260506070335 | 57 | 317 | 0.0 | 0.0 | 0.00 | 0.00 | 0.00 | 96 | 1016.2 |
| 20260506062312 | 58 | 324 | 0.0 | 0.0 | 0.00 | 0.00 | 0.00 | 96 | 1016.7 |
| 20260506061808 | 57 | 324 | 0.0 | 0.0 | 0.00 | 0.00 | 0.00 | 96 | 1016.6 |
| 20260506061305 | 57 | 323 | 0.0 | 0.0 | 0.00 | 0.00 | 0.00 | 96 | 1016.6 |
| 20260506060803 | 57 | 323 | 0.0 | 0.0 | 0.00 | 0.00 | 0.00 | 96 | 1016.4 |
| 20260506060301 | 57 | 323 | 0.0 | 0.0 | 0.00 | 0.00 | 0.00 | 96 | 1016.5 |
| 20260506051232 | 58 | 322 | 0.0 | 0.0 | 0.00 | 0.00 | 0.00 | 94 | 1017.0 |
| 20260506050730 | 58 | 323 | 0.0 | 0.0 | 0.00 | 0.00 | 0.00 | 94 | 1017.1 |
| 20260506050227 | 58 | 322 | 0.0 | 0.0 | 0.00 | 0.00 | 0.00 | 94 | 1017.1 |
| 20260506044718 | 58 | 319 | 0.0 | 0.0 | 0.00 | 0.00 | 0.00 | 93 | 1017.1 |
| 20260506044215 | 59 | 318 | 0.0 | 0.0 | 0.00 | 0.00 | 0.00 | 93 | 1017.0 |
| 20260506043713 | 59 | 321 | 0.0 | 0.0 | 0.00 | 0.00 | 0.00 | 93 | 1017.1 |
| 20260506043210 | 59 | 321 | 0.0 | 0.0 | 0.00 | 0.00 | 0.00 | 93 | 1017.6 |
| 20260506042709 | 59 | 321 | 0.0 | 0.0 | 0.00 | 0.00 | 0.00 | 93 | 1017.5 |
| 20260506042207 | 59 | 321 | 0.0 | 0.0 | 0.00 | 0.00 | 0.00 | 92 | 1017.2 |
| 20260506041705 | 59 | 321 | 0.0 | 0.0 | 0.00 | 0.00 | 0.00 | 92 | 1017.3 |
| 20260506041202 | 59 | 321 | 0.0 | 0.0 | 0.00 | 0.00 | 0.00 | 92 | 1017.6 |
| 20260506040659 | 59 | 321 | 0.0 | 0.0 | 0.00 | 0.00 | 0.00 | 92 | 1017.6 |
| 20260506040156 | 59 | 319 | 0.0 | 0.0 | 0.00 | 0.00 | 0.00 | 92 | 1017.3 |
| 20260506035653 | 59 | 319 | 0.0 | 0.0 | 0.00 | 0.00 | 0.00 | 92 | 1017.4 |
| 20260506035150 | 60 | 319 | 0.0 | 0.0 | 0.00 | 0.00 | 0.00 | 91 | 1017.4 |
| 20260506034646 | 60 | 321 | 0.0 | 0.0 | 0.00 | 0.00 | 0.00 | 91 | 1017.4 |
| 20260506034144 | 60 | 321 | 0.0 | 0.0 | 0.00 | 0.00 | 0.00 | 91 | 1017.2 |
| 20260506033641 | 60 | 321 | 0.0 | 0.0 | 0.00 | 0.00 | 0.00 | 91 | 1017.4 |
| 20260506033138 | 60 | 321 | 0.0 | 0.0 | 0.00 | 0.00 | 0.00 | 90 | 1017.1 |
| 20260506032635 | 60 | 320 | 0.0 | 0.0 | 0.00 | 0.00 | 0.00 | 90 | 1017.1 |
| 20260506032132 | 61 | 320 | 0.0 | 0.0 | 0.00 | 0.00 | 0.00 | 90 | 1017.0 |
| 20260506031629 | 61 | 320 | 0.0 | 0.0 | 0.00 | 0.00 | 0.00 | 89 | 1017.3 |
| 20260506031125 | 61 | 320 | 0.0 | 0.0 | 0.00 | 0.00 | 0.00 | 89 | 1016.9 |
| 20260506030624 | 61 | 320 | 0.0 | 0.0 | 0.00 | 0.00 | 0.00 | 89 | 1017.0 |
| 20260506030121 | 62 | 320 | 0.0 | 0.0 | 0.00 | 0.00 | 0.00 | 89 | 1017.2 |
| 20260506025618 | 62 | 317 | 0.0 | 0.0 | 0.00 | 0.00 | 0.00 | 88 | 1017.4 |
| 20260506025114 | 62 | 315 | 0.0 | 0.0 | 0.00 | 0.00 | 0.00 | 88 | 1017.1 |
| 20260506024612 | 62 | 318 | 0.0 | 0.0 | 0.00 | 0.00 | 0.00 | 87 | 1017.2 |
| 20260506024107 | 62 | 323 | 0.0 | 0.0 | 0.00 | 0.00 | 0.00 | 87 | 1017.3 |
| 20260506023604 | 62 | 325 | 0.0 | 0.0 | 0.00 | 0.00 | 0.00 | 86 | 1017.2 |
| 20260506023101 | 63 | 318 | 0.0 | 0.0 | 0.00 | 0.00 | 0.00 | 86 | 1017.4 |
| 20260506022558 | 63 | 318 | 0.0 | 0.0 | 0.00 | 0.00 | 0.00 | 85 | 1017.3 |
| 20260506022056 | 63 | 318 | 0.0 | 0.0 | 0.00 | 0.00 | 0.00 | 85 | 1017.3 |
| 20260506021553 | 64 | 323 | 0.0 | 0.0 | 0.00 | 0.00 | 0.00 | 84 | 1017.4 |
| 20260506021050 | 64 | 323 | 0.0 | 0.0 | 0.00 | 0.00 | 0.00 | 84 | 1017.4 |
| 20260506020548 | 64 | 323 | 0.0 | 0.0 | 0.00 | 0.00 | 0.00 | 83 | 1017.2 |
| 20260506020045 | 64 | 323 | 0.0 | 0.0 | 0.00 | 0.00 | 0.00 | 83 | 1017.3 |
| 20260506015542 | 64 | 318 | 0.0 | 0.0 | 0.00 | 0.00 | 0.00 | 82 | 1017.2 |
| 20260506015039 | 65 | 319 | 0.0 | 0.0 | 0.00 | 0.00 | 0.00 | 81 | 1017.2 |
| 20260506014537 | 65 | 325 | 0.0 | 0.0 | 0.00 | 0.00 | 0.00 | 81 | 1017.0 |
| 20260506014032 | 65 | 326 | 0.0 | 0.0 | 0.00 | 0.00 | 0.00 | 81 | 1017.1 |
| 20260506013531 | 65 | 323 | 0.0 | 0.0 | 0.00 | 0.00 | 0.00 | 80 | 1017.1 |
| 20260506013026 | 65 | 326 | 0.0 | 0.0 | 0.00 | 0.00 | 0.00 | 81 | 1017.0 |
| 20260506012523 | 65 | 321 | 0.0 | 0.0 | 0.00 | 0.00 | 0.00 | 81 | 1016.9 |
| 20260506012020 | 66 | 321 | 0.0 | 0.0 | 0.00 | 0.00 | 0.00 | 80 | 1016.9 |
| 20260506011517 | 66 | 326 | 0.0 | 0.0 | 0.00 | 0.00 | 0.00 | 80 | 1016.8 |
| 20260506011013 | 66 | 325 | 0.0 | 0.0 | 0.00 | 0.00 | 0.00 | 79 | 1016.8 |
| 20260506010508 | 66 | 325 | 0.0 | 0.0 | 0.00 | 0.00 | 0.00 | 79 | 1016.9 |
| 20260506010004 | 67 | 329 | 1.0 | 1.0 | 0.00 | 0.00 | 0.00 | 78 | 1017.0 |
| 20260506005501 | 67 | 323 | 0.0 | 0.0 | 0.00 | 0.00 | 0.00 | 78 | 1016.8 |
| 20260506004956 | 67 | 323 | 0.0 | 0.0 | 0.00 | 0.00 | 0.00 | 77 | 1017.0 |
| 20260506004455 | 67 | 310 | 0.0 | 0.0 | 0.00 | 0.00 | 0.00 | 77 | 1016.6 |
| 20260506003950 | 68 | 320 | 0.0 | 0.0 | 0.00 | 0.00 | 0.00 | 76 | 1016.8 |
| 20260506003447 | 68 | 335 | 1.0 | 2.0 | 0.00 | 0.00 | 0.00 | 75 | 1016.6 |
| 20260506002943 | 69 | 320 | 1.0 | 2.0 | 0.00 | 0.00 | 0.00 | 74 | 1016.6 |
| 20260506002440 | 69 | 323 | 0.0 | 1.0 | 0.00 | 0.00 | 0.00 | 74 | 1016.6 |
| 20260506001935 | 69 | 341 | 3.0 | 3.0 | 0.00 | 0.00 | 0.00 | 73 | 1016.7 |
| 20260506001432 | 69 | 334 | 1.0 | 2.0 | 0.00 | 0.00 | 0.00 | 73 | 1016.7 |
| 20260506000929 | 70 | 351 | 1.0 | 1.0 | 0.00 | 0.00 | 0.00 | 73 | 1016.9 |
| 20260506000427 | 70 | 342 | 3.0 | 3.0 | 0.00 | 0.00 | 0.00 | 72 | 1016.7 |
| 20260505235923 | 70 | 13 | 2.0 | 3.0 | 0.00 | 0.00 | 0.00 | 72 | 1016.6 |
| 20260505235422 | 71 | 329 | 1.0 | 1.0 | 0.00 | 0.00 | 0.00 | 71 | 1016.6 |
| 20260505234918 | 71 | 326 | 2.0 | 2.0 | 0.00 | 0.00 | 0.00 | 70 | 1016.7 |
| 20260505234416 | 71 | 323 | 1.0 | 2.0 | 0.00 | 0.00 | 0.00 | 69 | 1016.9 |
| 20260505233912 | 72 | 0 | 3.0 | 3.0 | 0.00 | 0.00 | 0.00 | 68 | 1016.7 |
| 20260505233411 | 72 | 327 | 1.0 | 2.0 | 0.00 | 0.00 | 0.00 | 68 | 1016.6 |
| 20260505232908 | 72 | 311 | 1.0 | 1.0 | 0.00 | 0.00 | 0.00 | 68 | 1016.3 |
| 20260505232405 | 72 | 333 | 2.0 | 2.0 | 0.00 | 0.00 | 0.00 | 67 | 1016.4 |
| 20260505231902 | 73 | 355 | 1.0 | 3.0 | 0.00 | 0.00 | 0.00 | 67 | 1016.3 |
| 20260505231359 | 73 | 343 | 3.0 | 3.0 | 0.00 | 0.00 | 0.00 | 67 | 1016.2 |
| 20260505230857 | 73 | 326 | 1.0 | 2.0 | 0.00 | 0.00 | 0.00 | 66 | 1016.4 |
| 20260505230355 | 73 | 322 | 3.0 | 3.0 | 0.00 | 0.00 | 0.00 | 65 | 1016.2 |
| 20260505225851 | 74 | 31 | 3.0 | 3.0 | 0.00 | 0.00 | 0.00 | 64 | 1016.2 |
| 20260505225348 | 74 | 322 | 1.0 | 2.0 | 0.00 | 0.00 | 0.00 | 63 | 1016.3 |
| 20260505224843 | 74 | 15 | 4.0 | 5.0 | 0.00 | 0.00 | 0.00 | 62 | 1016.4 |
| 20260505224341 | 76 | 321 | 1.0 | 2.0 | 0.00 | 0.00 | 0.00 | 62 | 1016.3 |
| 20260505223838 | 76 | 336 | 1.0 | 2.0 | 0.00 | 0.00 | 0.00 | 62 | 1016.4 |
| 20260505223335 | 75 | 312 | 3.0 | 5.0 | 0.00 | 0.00 | 0.00 | 61 | 1016.2 |
| 20260505222831 | 76 | 21 | 1.0 | 2.0 | 0.00 | 0.00 | 0.00 | 59 | 1016.2 |
| 20260505222327 | 77 | 22 | 4.0 | 6.0 | 0.00 | 0.00 | 0.00 | 59 | 1016.4 |
| 20260505221825 | 77 | 6 | 3.0 | 3.0 | 0.00 | 0.00 | 0.00 | 59 | 1016.3 |
| 20260505221321 | 76 | 25 | 3.0 | 6.0 | 0.00 | 0.00 | 0.00 | 60 | 1016.3 |
| 20260505220818 | 77 | 18 | 5.0 | 10.0 | 0.00 | 0.00 | 0.00 | 58 | 1016.3 |
| 20260505220315 | 77 | 322 | 3.0 | 6.0 | 0.00 | 0.00 | 0.00 | 58 | 1016.5 |
| 20260505215813 | 77 | 299 | 2.0 | 3.0 | 0.00 | 0.00 | 0.00 | 58 | 1016.4 |
| 20260505215311 | 78 | 359 | 1.0 | 2.0 | 0.00 | 0.00 | 0.00 | 58 | 1016.4 |
| 20260505214809 | 77 | 337 | 3.0 | 5.0 | 0.00 | 0.00 | 0.00 | 57 | 1016.4 |
| 20260505214306 | 78 | 38 | 2.0 | 2.0 | 0.00 | 0.00 | 0.00 | 57 | 1016.5 |
| 20260505213803 | 78 | 343 | 5.0 | 6.0 | 0.00 | 0.00 | 0.00 | 55 | 1016.6 |
| 20260505213301 | 78 | 339 | 3.0 | 5.0 | 0.00 | 0.00 | 0.00 | 53 | 1016.5 |
| 20260505212756 | 78 | 345 | 1.0 | 2.0 | 0.00 | 0.00 | 0.00 | 55 | 1016.6 |
| 20260505212254 | 79 | 339 | 1.0 | 1.0 | 0.00 | 0.00 | 0.00 | 52 | 1016.6 |
| 20260505211750 | 80 | 338 | 1.0 | 2.0 | 0.00 | 0.00 | 0.00 | 51 | 1016.3 |
| 20260505211248 | 80 | 306 | 1.0 | 1.0 | 0.00 | 0.00 | 0.00 | 51 | 1016.5 |
| 20260505210744 | 80 | 335 | 2.0 | 2.0 | 0.00 | 0.00 | 0.00 | 50 | 1016.7 |
| 20260505210241 | 79 | 7 | 2.0 | 3.0 | 0.00 | 0.00 | 0.00 | 51 | 1016.7 |
| 20260505205738 | 80 | 308 | 1.0 | 1.0 | 0.00 | 0.00 | 0.00 | 53 | 1016.4 |
| 20260505205236 | 80 | 14 | 3.0 | 3.0 | 0.00 | 0.00 | 0.00 | 53 | 1016.5 |
| 20260505204732 | 80 | 317 | 0.0 | 1.0 | 0.00 | 0.00 | 0.00 | 53 | 1016.4 |
| 20260505204230 | 80 | 353 | 3.0 | 3.0 | 0.00 | 0.00 | 0.00 | 54 | 1016.4 |
| 20260505203727 | 80 | 222 | 2.0 | 2.0 | 0.00 | 0.00 | 0.00 | 54 | 1016.5 |
| 20260505203224 | 80 | 330 | 4.0 | 6.0 | 0.00 | 0.00 | 0.00 | 54 | 1016.4 |
| 20260505202720 | 81 | 339 | 4.0 | 6.0 | 0.00 | 0.00 | 0.00 | 52 | 1016.4 |
| 20260505202216 | 81 | 27 | 5.0 | 6.0 | 0.00 | 0.00 | 0.00 | 53 | 1016.5 |
| 20260505201713 | 80 | 321 | 1.0 | 1.0 | 0.00 | 0.00 | 0.00 | 55 | 1016.6 |
| 20260505201211 | 80 | 333 | 4.0 | 5.0 | 0.00 | 0.00 | 0.00 | 52 | 1016.6 |
| 20260505200709 | 79 | 50 | 5.0 | 7.0 | 0.00 | 0.00 | 0.00 | 55 | 1016.5 |
| 20260505200205 | 81 | 40 | 5.0 | 8.0 | 0.00 | 0.00 | 0.00 | 54 | 1016.6 |
| 20260505195701 | 82 | 279 | 3.0 | 3.0 | 0.00 | 0.00 | 0.00 | 49 | 1016.7 |
| 20260505195158 | 82 | 44 | 5.0 | 7.0 | 0.00 | 0.00 | 0.00 | 51 | 1016.5 |
| 20260505194656 | 82 | 347 | 5.0 | 7.0 | 0.00 | 0.00 | 0.00 | 50 | 1016.8 |
| 20260505194152 | 81 | 11 | 1.0 | 2.0 | 0.00 | 0.00 | 0.00 | 52 | 1016.8 |
| 20260505193648 | 82 | 342 | 2.0 | 5.0 | 0.00 | 0.00 | 0.00 | 49 | 1016.9 |
| 20260505193145 | 81 | 329 | 1.0 | 1.0 | 0.00 | 0.00 | 0.00 | 53 | 1017.1 |
| 20260505192644 | 82 | 358 | 4.0 | 5.0 | 0.00 | 0.00 | 0.00 | 50 | 1017.2 |
| 20260505192141 | 81 | 315 | 0.0 | 1.0 | 0.00 | 0.00 | 0.00 | 50 | 1017.4 |
| 20260505191639 | 82 | 5 | 5.0 | 7.0 | 0.00 | 0.00 | 0.00 | 49 | 1017.4 |
| 20260505191137 | 81 | 37 | 4.0 | 6.0 | 0.00 | 0.00 | 0.00 | 50 | 1017.5 |
| 20260505190633 | 82 | 23 | 6.0 | 9.0 | 0.00 | 0.00 | 0.00 | 51 | 1017.6 |
| 20260505190127 | 81 | 316 | 1.0 | 1.0 | 0.00 | 0.00 | 0.00 | 51 | 1017.7 |
| 20260505185625 | 83 | 325 | 0.0 | 1.0 | 0.00 | 0.00 | 0.00 | 53 | 1017.8 |
| 20260505185121 | 82 | 333 | 3.0 | 5.0 | 0.00 | 0.00 | 0.00 | 48 | 1017.5 |
| 20260505184618 | 82 | 359 | 2.0 | 3.0 | 0.00 | 0.00 | 0.00 | 51 | 1017.6 |
| 20260505184114 | 81 | 261 | 3.0 | 5.0 | 0.00 | 0.00 | 0.00 | 50 | 1017.7 |
| 20260505183611 | 82 | 351 | 1.0 | 1.0 | 0.00 | 0.00 | 0.00 | 49 | 1017.6 |
| 20260505183109 | 81 | 321 | 1.0 | 1.0 | 0.00 | 0.00 | 0.00 | 52 | 1017.5 |
| 20260505182605 | 82 | 336 | 1.0 | 1.0 | 0.00 | 0.00 | 0.00 | 50 | 1017.5 |
| 20260505182102 | 81 | 322 | 3.0 | 5.0 | 0.00 | 0.00 | 0.00 | 51 | 1017.5 |
| 20260505181559 | 81 | 2 | 4.0 | 8.0 | 0.00 | 0.00 | 0.00 | 50 | 1017.3 |
| 20260505181056 | 82 | 273 | 1.0 | 2.0 | 0.00 | 0.00 | 0.00 | 50 | 1017.4 |
| 20260505180551 | 81 | 284 | 2.0 | 2.0 | 0.00 | 0.00 | 0.00 | 51 | 1017.4 |
| 20260505180050 | 81 | 316 | 1.0 | 2.0 | 0.00 | 0.00 | 0.00 | 53 | 1017.8 |
| 20260505175550 | 81 | 357 | 5.0 | 7.0 | 0.00 | 0.00 | 0.00 | 52 | 1017.4 |
| 20260505175047 | 81 | 325 | 1.0 | 1.0 | 0.00 | 0.00 | 0.00 | 54 | 1017.4 |
| 20260505174544 | 81 | 331 | 4.0 | 7.0 | 0.00 | 0.00 | 0.00 | 52 | 1017.7 |
| 20260505174040 | 80 | 331 | 1.0 | 1.0 | 0.00 | 0.00 | 0.00 | 52 | 1017.6 |
| 20260505173537 | 81 | 326 | 4.0 | 6.0 | 0.00 | 0.00 | 0.00 | 52 | 1017.7 |
| 20260505173033 | 82 | 357 | 2.0 | 2.0 | 0.00 | 0.00 | 0.00 | 53 | 1017.5 |
| 20260505172531 | 81 | 5 | 3.0 | 6.0 | 0.00 | 0.00 | 0.00 | 55 | 1017.5 |
| 20260505172027 | 81 | 311 | 0.0 | 1.0 | 0.00 | 0.00 | 0.00 | 54 | 1017.9 |
| 20260505171522 | 80 | 315 | 1.0 | 2.0 | 0.00 | 0.00 | 0.00 | 55 | 1018.1 |
| 20260505171020 | 80 | 4 | 1.0 | 2.0 | 0.00 | 0.00 | 0.00 | 54 | 1018.0 |
| 20260505170517 | 80 | 33 | 3.0 | 5.0 | 0.00 | 0.00 | 0.00 | 56 | 1018.0 |
| 20260505170013 | 81 | 355 | 1.0 | 2.0 | 0.00 | 0.00 | 0.00 | 53 | 1018.0 |
| 20260505165508 | 82 | 325 | 2.0 | 2.0 | 0.00 | 0.00 | 0.00 | 55 | 1018.0 |
| 20260505165004 | 80 | 315 | 0.0 | 1.0 | 0.00 | 0.00 | 0.00 | 58 | 1018.1 |
| 20260505164500 | 79 | 353 | 3.0 | 6.0 | 0.00 | 0.00 | 0.00 | 57 | 1018.4 |
| 20260505163958 | 79 | 357 | 3.0 | 6.0 | 0.00 | 0.00 | 0.00 | 58 | 1018.5 |
| 20260505163457 | 79 | 343 | 3.0 | 5.0 | 0.00 | 0.00 | 0.00 | 58 | 1018.6 |
| 20260505162956 | 79 | 309 | 3.0 | 3.0 | 0.00 | 0.00 | 0.00 | 57 | 1018.7 |
| 20260505162451 | 80 | 331 | 3.0 | 3.0 | 0.00 | 0.00 | 0.00 | 55 | 1018.6 |
| 20260505161948 | 79 | 320 | 1.0 | 2.0 | 0.00 | 0.00 | 0.00 | 58 | 1018.6 |
| 20260505161444 | 79 | 321 | 0.0 | 0.0 | 0.00 | 0.00 | 0.00 | 60 | 1018.6 |
| 20260505160942 | 79 | 17 | 2.0 | 3.0 | 0.00 | 0.00 | 0.00 | 59 | 1018.9 |
| 20260505160440 | 79 | 40 | 3.0 | 5.0 | 0.00 | 0.00 | 0.00 | 58 | 1018.9 |
| 20260505152910 | 77 | 339 | 0.0 | 1.0 | 0.00 | 0.00 | 0.00 | 63 | 1018.9 |
| 20260505152407 | 78 | 299 | 1.0 | 1.0 | 0.00 | 0.00 | 0.00 | 60 | 1018.9 |
| 20260505151902 | 77 | 337 | 3.0 | 3.0 | 0.00 | 0.00 | 0.00 | 61 | 1018.7 |
| 20260505151359 | 77 | 302 | 1.0 | 2.0 | 0.00 | 0.00 | 0.00 | 61 | 1018.8 |
| 20260505150855 | 76 | 321 | 0.0 | 1.0 | 0.00 | 0.00 | 0.00 | 62 | 1018.9 |
| 20260505150352 | 76 | 301 | 4.0 | 8.0 | 0.00 | 0.00 | 0.00 | 61 | 1018.8 |
| 20260505140317 | 73 | 319 | 1.0 | 2.0 | 0.00 | 0.00 | 0.00 | 70 | 1018.7 |
| 20260505130240 | 66 | 311 | 0.0 | 0.0 | 0.00 | 0.00 | 0.00 | 95 | 1018.6 |
| 20260505124731 | 60 | 313 | 0.0 | 0.0 | 0.00 | 0.00 | 0.00 | 98 | 1018.5 |
| 20260505124228 | 59 | 313 | 0.0 | 0.0 | 0.00 | 0.00 | 0.00 | 98 | 1018.6 |
| 20260505123723 | 58 | 317 | 0.0 | 0.0 | 0.00 | 0.00 | 0.00 | 98 | 1018.6 |
| 20260505123220 | 57 | 318 | 0.0 | 0.0 | 0.00 | 0.00 | 0.00 | 98 | 1018.6 |
| 20260505122717 | 57 | 318 | 0.0 | 0.0 | 0.00 | 0.00 | 0.00 | 98 | 1018.6 |
| 20260505122214 | 55 | 318 | 0.0 | 0.0 | 0.00 | 0.00 | 0.00 | 98 | 1018.5 |
| 20260505121710 | 54 | 318 | 0.0 | 0.0 | 0.00 | 0.00 | 0.00 | 98 | 1018.6 |
| 20260505121207 | 53 | 318 | 0.0 | 0.0 | 0.00 | 0.00 | 0.00 | 98 | 1018.9 |
| 20260505120704 | 53 | 318 | 0.0 | 0.0 | 0.00 | 0.00 | 0.00 | 98 | 1018.5 |
| 20260505120200 | 52 | 318 | 0.0 | 0.0 | 0.00 | 0.00 | 0.00 | 98 | 1018.8 |
| 20260505115653 | 52 | 319 | 0.0 | 0.0 | 0.00 | 0.00 | 0.00 | 98 | 1018.5 |
| 20260505115151 | 53 | 319 | 0.0 | 0.0 | 0.00 | 0.00 | 0.00 | 98 | 1018.4 |
| 20260505114648 | 53 | 319 | 0.0 | 0.0 | 0.00 | 0.00 | 0.00 | 98 | 1018.4 |
| 20260505114144 | 53 | 319 | 0.0 | 0.0 | 0.00 | 0.00 | 0.00 | 98 | 1018.4 |
| 20260505113641 | 51 | 319 | 0.0 | 0.0 | 0.00 | 0.00 | 0.00 | 98 | 1018.4 |
| 20260505113137 | 50 | 320 | 0.0 | 0.0 | 0.00 | 0.00 | 0.00 | 98 | 1018.4 |
| 20260505112633 | 50 | 319 | 0.0 | 0.0 | 0.00 | 0.00 | 0.00 | 98 | 1018.2 |
| 20260505112132 | 50 | 320 | 0.0 | 0.0 | 0.00 | 0.00 | 0.00 | 98 | 1018.3 |
| 20260505111626 | 50 | 321 | 0.0 | 0.0 | 0.00 | 0.00 | 0.00 | 98 | 1018.2 |
| 20260505111122 | 50 | 319 | 0.0 | 0.0 | 0.00 | 0.00 | 0.00 | 98 | 1018.0 |
| 20260505110618 | 50 | 319 | 0.0 | 0.0 | 0.00 | 0.00 | 0.00 | 98 | 1018.2 |
| 20260505110115 | 50 | 324 | 0.0 | 0.0 | 0.00 | 0.00 | 0.00 | 98 | 1017.9 |